Location: Poughquag
(41.6090°N, 73.6820°W)
Time: 05:29:11
(UTC-04:00)

ITUPSAT 1 - Pass Details

Date: 23 June 2024
Orbit: 695 x 705 km, 98.5° (Epoch: 24 July)

Event Time Altitude Azimuth Distance (km) Brightness Sun altitude
Rises 21:39:31 0° 37° (NE) 3,105 ? -10.5°
Reaches altitude 10° 21:43:33 10° 71° (ENE) 2,179 ? -11.0°
Maximum altitude 21:45:03 11° 89° (E) 2,086 ? -11.2°
Enters shadow 21:46:09 11° 103° (ESE) 2,134 ? -11.4°
